• în România
  • Lista ţărilor
  • Pe 7 zile
  • Temperatura apei
  • Hartă satelitară
  • Meteo pe hartă
  • Widget-uri
  • user-avatar
    Intrare

    Meteo pe oră la Orsha

    Astăzi, 18 Iunie, Luni

    Timp Temperatura Precipitaţii Vânt Presiune Umiditate
    00:00 +16°C° 0 mm 2 m/s 746 mmHg 94%
    01:00 +16°C° 0 mm 1 m/s 745 mmHg 95%
    02:00 +16°C° 0 mm 1 m/s 745 mmHg 94%
    03:00 +16°C° 0 mm 1 m/s 745 mmHg 95%
    04:00 +16°C° 0 mm 1 m/s 745 mmHg 95%
    05:00 +16°C° 0 mm 1 m/s 745 mmHg 95%
    06:00 +19°C° 0 mm 1 m/s 746 mmHg 91%
    07:00 +20°C° 0 mm 1 m/s 746 mmHg 87%
    08:00 +22°C° 0 mm 1 m/s 746 mmHg 84%
    09:00 +22°C° 0 mm 1 m/s 746 mmHg 80%
    10:00 +23°C° 0 mm 2 m/s 746 mmHg 76%
    11:00 +24°C° 0 mm 2 m/s 746 mmHg 72%
    12:00 +25°C° 0,1 mm 2 m/s 746 mmHg 69%
    13:00 +26°C° 0,1 mm 2 m/s 746 mmHg 66%
    14:00 +26°C° 0,1 mm 2 m/s 746 mmHg 64%
    15:00 +26°C° 0,1 mm 2 m/s 745 mmHg 66%
    16:00 +26°C° 0,1 mm 2 m/s 745 mmHg 68%
    17:00 +25°C° 0,1 mm 2 m/s 745 mmHg 70%
    18:00 +24°C° 0 mm 2 m/s 745 mmHg 74%
    19:00 +23°C° 0 mm 2 m/s 745 mmHg 78%
    20:00 +20°C° 0 mm 2 m/s 745 mmHg 83%
    21:00 +20°C° 0 mm 2 m/s 745 mmHg 83%
    22:00 +20°C° 0 mm 1 m/s 745 mmHg 84%
    23:00 +19°C° 0 mm 1 m/s 745 mmHg 84%

    Mâine, 19 Iunie, Marţi

    Timp Temperatura Precipitaţii Vânt Presiune Umiditate
    00:00 +19°C° 0 mm 1 m/s 745 mmHg 86%
    01:00 +18°C° 0 mm 2 m/s 745 mmHg 87%
    02:00 +17°C° 0 mm 2 m/s 745 mmHg 89%
    03:00 +17°C° 0 mm 2 m/s 745 mmHg 90%
    04:00 +17°C° 0 mm 2 m/s 746 mmHg 91%
    05:00 +17°C° 0 mm 2 m/s 746 mmHg 92%
    06:00 +19°C° 0 mm 2 m/s 746 mmHg 88%
    07:00 +20°C° 0 mm 3 m/s 746 mmHg 84%
    08:00 +21°C° 0 mm 3 m/s 746 mmHg 81%
    09:00 +22°C° 0,1 mm 3 m/s 746 mmHg 76%
    10:00 +24°C° 0,1 mm 3 m/s 746 mmHg 72%
    11:00 +25°C° 0,1 mm 4 m/s 746 mmHg 68%
    12:00 +26°C° 0,1 mm 4 m/s 746 mmHg 65%
    13:00 +26°C° 0,1 mm 4 m/s 746 mmHg 63%
    14:00 +26°C° 0,1 mm 4 m/s 746 mmHg 61%
    15:00 +26°C° 0 mm 4 m/s 745 mmHg 63%
    16:00 +26°C° 0 mm 4 m/s 745 mmHg 64%
    17:00 +26°C° 0 mm 3 m/s 745 mmHg 66%
    18:00 +24°C° 0 mm 3 m/s 745 mmHg 70%
    19:00 +21°C° 0 mm 3 m/s 745 mmHg 75%
    20:00 +20°C° 0 mm 2 m/s 745 mmHg 79%
    21:00 +19°C° 0 mm 2 m/s 745 mmHg 81%
    22:00 +18°C° 0 mm 2 m/s 745 mmHg 82%
    23:00 +17°C° 0 mm 3 m/s 746 mmHg 84%

    Poimâine, 20 Iunie, Miercuri

    Timp Temperatura Precipitaţii Vânt Presiune Umiditate
    00:00 +17°C° 0 mm 3 m/s 746 mmHg 87%
    01:00 +16°C° 0 mm 3 m/s 746 mmHg 90%
    02:00 +16°C° 0 mm 3 m/s 746 mmHg 92%
    03:00 +16°C° 0 mm 3 m/s 746 mmHg 93%
    04:00 +14°C° 0 mm 3 m/s 747 mmHg 93%
    05:00 +14°C° 0 mm 3 m/s 747 mmHg 94%
    06:00 +16°C° 0 mm 3 m/s 747 mmHg 88%
    07:00 +18°C° 0 mm 3 m/s 747 mmHg 83%
    08:00 +19°C° 0 mm 4 m/s 747 mmHg 78%
    09:00 +20°C° 0 mm 4 m/s 747 mmHg 76%
    10:00 +20°C° 0 mm 4 m/s 747 mmHg 73%
    11:00 +21°C° 0 mm 5 m/s 747 mmHg 70%
    12:00 +22°C° 0 mm 5 m/s 747 mmHg 67%
    13:00 +22°C° 0 mm 5 m/s 747 mmHg 64%
    14:00 +23°C° 0 mm 5 m/s 747 mmHg 61%
    15:00 +23°C° 0 mm 5 m/s 747 mmHg 63%
    16:00 +23°C° 0 mm 4 m/s 747 mmHg 64%
    17:00 +22°C° 0 mm 4 m/s 747 mmHg 65%
    18:00 +21°C° 0 mm 3 m/s 747 mmHg 69%
    19:00 +20°C° 0 mm 3 m/s 747 mmHg 74%
    20:00 +18°C° 0 mm 2 m/s 747 mmHg 78%
    21:00 +17°C° 0 mm 2 m/s 747 mmHg 80%
    22:00 +16°C° 0 mm 2 m/s 747 mmHg 82%
    23:00 +15°C° 0 mm 2 m/s 747 mmHg 83%

    21 Iunie, Joi

    Timp Temperatura Precipitaţii Vânt Presiune Umiditate
    00:00 +14°C° 0 mm 2 m/s 747 mmHg 86%
    01:00 +13°C° 0 mm 2 m/s 747 mmHg 88%
    02:00 +13°C° 0 mm 2 m/s 747 mmHg 90%
    03:00 +13°C° 0 mm 2 m/s 747 mmHg 90%
    04:00 +13°C° 0 mm 2 m/s 747 mmHg 90%
    05:00 +13°C° 0 mm 2 m/s 747 mmHg 89%
    06:00 +15°C° 0 mm 2 m/s 747 mmHg 83%
    07:00 +17°C° 0 mm 2 m/s 747 mmHg 76%
    08:00 +18°C° 0 mm 2 m/s 747 mmHg 70%
    09:00 +20°C° 0 mm 2 m/s 747 mmHg 65%
    10:00 +21°C° 0 mm 3 m/s 746 mmHg 61%
    11:00 +22°C° 0 mm 3 m/s 746 mmHg 57%
    12:00 +24°C° 0 mm 3 m/s 746 mmHg 56%
    13:00 +25°C° 0 mm 3 m/s 745 mmHg 55%
    14:00 +26°C° 0 mm 3 m/s 745 mmHg 54%
    15:00 +26°C° 0 mm 2 m/s 744 mmHg 56%
    16:00 +26°C° 0 mm 2 m/s 744 mmHg 58%
    17:00 +26°C° 0 mm 2 m/s 743 mmHg 61%
    18:00 +24°C° 0 mm 3 m/s 743 mmHg 67%
    19:00 +22°C° 0 mm 3 m/s 742 mmHg 72%
    20:00 +20°C° 0 mm 3 m/s 742 mmHg 78%
    21:00 +20°C° 0 mm 4 m/s 741 mmHg 76%
    22:00 +19°C° 0 mm 4 m/s 741 mmHg 75%
    23:00 +19°C° 0 mm 5 m/s 741 mmHg 73%

    22 Iunie, Vineri

    Timp Temperatura Precipitaţii Vânt Presiune Umiditate
    00:00 +19°C° 0 mm 5 m/s 740 mmHg 74%
    01:00 +19°C° 0 mm 5 m/s 740 mmHg 74%
    02:00 +19°C° 0 mm 5 m/s 739 mmHg 74%
    03:00 +19°C° 0,4 mm 6 m/s 738 mmHg 80%
    04:00 +19°C° 0,4 mm 6 m/s 738 mmHg 85%
    05:00 +19°C° 0,4 mm 6 m/s 737 mmHg 91%
    06:00 +20°C° 0,4 mm 6 m/s 737 mmHg 91%
    07:00 +20°C° 0,4 mm 6 m/s 737 mmHg 91%
    08:00 +21°C° 0,4 mm 6 m/s 737 mmHg 91%
    09:00 +21°C° 1,1 mm 6 m/s 737 mmHg 90%
    10:00 +22°C° 1,1 mm 6 m/s 738 mmHg 89%
    11:00 +22°C° 1,1 mm 5 m/s 738 mmHg 88%
    12:00 +22°C° 0,3 mm 5 m/s 738 mmHg 82%
    13:00 +22°C° 0,3 mm 5 m/s 738 mmHg 77%
    14:00 +22°C° 0,3 mm 4 m/s 738 mmHg 72%
    15:00 +22°C° 0 mm 4 m/s 738 mmHg 70%
    16:00 +22°C° 0 mm 4 m/s 738 mmHg 68%
    17:00 +22°C° 0 mm 4 m/s 738 mmHg 67%
    18:00 +20°C° 0 mm 3 m/s 739 mmHg 69%
    19:00 +19°C° 0 mm 3 m/s 739 mmHg 71%
    20:00 +18°C° 0 mm 3 m/s 739 mmHg 73%
    21:00 +17°C° 0,1 mm 3 m/s 739 mmHg 75%
    22:00 +16°C° 0,1 mm 3 m/s 739 mmHg 76%
    23:00 +14°C° 0,1 mm 3 m/s 740 mmHg 78%

    23 Iunie, Sâmbătă

    Timp Temperatura Precipitaţii Vânt Presiune Umiditate
    00:00 +15°C° 0,3 mm 2 m/s 740 mmHg 80%
    01:00 +14°C° 0,3 mm 2 m/s 740 mmHg 81%
    02:00 +14°C° 0,3 mm 2 m/s 740 mmHg 82%
    03:00 +13°C° 0,1 mm 2 m/s 740 mmHg 83%
    04:00 +13°C° 0,1 mm 2 m/s 741 mmHg 84%
    05:00 +13°C° 0,1 mm 2 m/s 741 mmHg 84%
    06:00 +13°C° 0 mm 2 m/s 741 mmHg 82%
    07:00 +14°C° 0 mm 2 m/s 741 mmHg 79%
    08:00 +13°C° 0 mm 3 m/s 741 mmHg 77%
    09:00 +15°C° 0 mm 2 m/s 741 mmHg 75%
    10:00 +15°C° 0 mm 2 m/s 741 mmHg 73%
    11:00 +15°C° 0 mm 2 m/s 742 mmHg 71%
    12:00 +16°C° 0 mm 2 m/s 742 mmHg 69%
    13:00 +16°C° 0 mm 2 m/s 742 mmHg 67%
    14:00 +17°C° 0 mm 2 m/s 742 mmHg 65%
    15:00 +17°C° 0 mm 2 m/s 742 mmHg 63%
    16:00 +18°C° 0 mm 2 m/s 742 mmHg 60%
    17:00 +19°C° 0 mm 1 m/s 742 mmHg 58%
    18:00 +18°C° 0 mm 1 m/s 742 mmHg 65%
    19:00 +16°C° 0 mm 2 m/s 742 mmHg 71%
    20:00 +14°C° 0 mm 2 m/s 742 mmHg 78%
    21:00 +13°C° 0 mm 2 m/s 742 mmHg 82%
    22:00 +12°C° 0 mm 2 m/s 742 mmHg 85%
    23:00 +10°C° 0 mm 2 m/s 742 mmHg 89%
    Arată mai mult